shopify analytics
Agen Bola, Agen casino, Bandar Bola, Situs Bola
Togel Singapure,Togel Jakarta,Togel Online,Prediksi Togel,Togel Sgp
casino online, kasino, live casino, agen kasino, live kasino online,game kasino

Jackpot

Texas Poker Multi Jackpot System

Kini Telah hadir Jackpot SUPER ROYAL FLUSH

Kini Telah hadir Jackpot 2000 (khusus table VIP keatas).

Ikutilah global jackpot yang tersedia di system kami, dengan system jackpot terbaru dan pertama di indonesia, anda dapat membeli jackpot dengan harga 100 rupiah saja dan menangkan hadiahnya hingga puluhan juta rupiah.

Jackpot bukanlah suatu keharusan untuk dibeli, namun kami memberikan suatu fitur tambahan untuk member tercinta dari www.mejavip.net.

Terdapat tiga pilihan harga jackpot yang bisa anda beli yaitu :100,500,1000 dan 2000(khusus table VIP Keatas) rupiah.

Hadiah dari Multi jackpot system www.mejavip.net

  1. full house x 10 harga jackpot yang anda beli.
      (contoh:anda membeli 1000 maka:1000 X10 = 10.000)
  2. four of kind x 250 harga jackpot yang anda beli
      (contoh:anda membeli 1000 maka:1000 X250 = 250.000)
  3. Straight flush x 1200
      (contoh:anda membeli 1000 maka:1000 X1200 = 1.200.000)
  4. Royal flush x 10000 harga jackpot yang anda beli
      (contoh:anda membeli 1000 maka:1000 X10000 = 10.000.000)
  5. SUPER ROYAL FLUSH x 30000 harga jackpot yang anda beli
      (contoh:anda membeli 1000 maka:1000 X30000 = 30.000.000)

Kondisi kartu

  1. full house adalah kondisi kartu dimana kartu anda dan kartu tengah dengan total 7 kartu bisa mendapatkan nilai 5 kartu dengan kombinasi 1 tris(three of kind) dan 1 pair, contoh 3 kartu 10 dan 2 kartu 5
  2. Four of kind adalah kondisi kartu dimana kartu anda dan kartu tengah dengan total 7 kartu bisa mendapatkan nilai 5 kartu dengan kombinasi 4 kartu yang sama jumlah dan 1 kartu apapun juga contoh anda mendapatkan 4 buah kartu angka 3 dan 1 kartu apapun.
  3. Staright flush adalah kondisi kartu dimana kartu anda dan kartu tengah dengan total 7 kartu bisa mendapatkan nilai 5 kartu dengan kombinasi seri / staright dengan kembang yang sama contoh : urutan kartu dari angka 5, 6, 7, 8 , 9 10 dengan kembang yg sama misalnya as hati
  4. Royal flush adalah kondisi kartu dimana kartu anda dan kartu tengah dengan total 7 kartu bisa mendapatkan nilai 5 kartu dengan kombinasi seri / staright dengan kembang yang sama tetapi kartu tersebut haruslah dimulai dari 10. contoh 10, Queen, Jack, King dan aces dengan kembang yang sama
  5. Super Royal flush adalah kondisi kartu dimana Kedua kartu anda digabung dengan 3 kartu pertama meja haruslah royal flush. contoh kartu anda 10,Queen kembang sama dan 3 kartu pertama meja adalah Jack, King dan aces dengan kembang yang sama

Demikian adalah penjelasan dari Multi Jackpot www.mejavip.net terima kasih dan selamat bermain salam hoki dari kami

Texas Poker Jackpot Winner

TOP SUPER ROYAL FLUSH
No.TanggalNamaPriceWin
127/07 15:22INDRA879Super Royal flush30,000,000
227/07 02:03SHAMPO23Super Royal flush3,000,000
326/07 21:50FOXNY9946Super Royal flush15,000,000
426/07 20:43MATR1X41Super Royal flush3,000,000
526/07 20:27SINIDUITLOSuper Royal flush15,000,000
TOP ROYAL FLUSH
No.TanggalNamaPriceWin
127/07 18:09LAMPUSRoyal flush20,000,000
227/07 17:53GAYENG182Royal flush5,000,000
327/07 17:50TEMPA88Royal flush5,000,000
427/07 17:42GOGOD333Royal flush10,000,000
527/07 17:38DIPTADJO30Royal flush5,000,000
TOP STRAIGHT FLUSH
No.TanggalNamaPriceWin
127/07 18:30MASPOHStraight Flush1,200,000
227/07 18:24KIDDIStraight Flush600,000
327/07 18:24ACALEK99Straight Flush120,000
427/07 18:23JOLIE27Straight Flush600,000
527/07 18:16AMOY84Straight Flush1,200,000
LATEST JACKPOT
No.TanggalNamaPriceWin
127/07 18:34GELIGE22Full House1,000
227/07 18:34EVIQ160707Full House10,000
327/07 18:34JERISFull House10,000
427/07 18:34MOCKTAILSFull House5,000
527/07 18:34CEKIIWWWFull House1,000
627/07 18:34ZEON32Full House5,000
727/07 18:34PUTIBUNSUFull House10,000
827/07 18:34RAJARUPIAHFull House10,000
927/07 18:34KIJANG18Full House5,000
1027/07 18:34BO599Full House1,000
1127/07 18:34MYST3RYFull House10,000
1227/07 18:34KUE1001Full House5,000
1327/07 18:34JAMAGAFull House10,000
1427/07 18:34SYAHDAN02Full House1,000
1527/07 18:34ZEMARFull House1,000
1627/07 18:34FAN0512Full House1,000
1727/07 18:33SEXYYY69Full House10,000
1827/07 18:33DINI27Full House10,000
1927/07 18:33PERBAN22Full House5,000
2027/07 18:33RELOD3YNKFFull House1,000
2127/07 18:33RUGI1Four Of A Kind25,000
2227/07 18:33RUDYBOSFull House5,000
2327/07 18:33R03LFull House1,000
2427/07 18:33BLITZ89Full House5,000
2527/07 18:33SA060293Full House5,000
2627/07 18:33GAL69Full House1,000
2727/07 18:33UGHES0112Full House5,000
2827/07 18:33F1F4C985Full House5,000
2927/07 18:33MATANEMFull House10,000
3027/07 18:33BARAS123Full House1,000
3127/07 18:33AWED_18Full House1,000
3227/07 18:33KARIAU81Full House5,000
3327/07 18:33DHIES007Full House1,000
3427/07 18:33MASKOT1Full House1,000
3527/07 18:33WADAIFull House1,000
3627/07 18:33JULY0707Full House1,000
3727/07 18:33BATU1402Full House5,000
3827/07 18:33YKF12Full House1,000
3927/07 18:33BUAYA84Full House20,000
4027/07 18:33CHONG14Full House5,000
4127/07 18:33SUKMA72Full House10,000
4227/07 18:33BNG123Full House1,000
4327/07 18:33F4C3DE10Full House1,000
4427/07 18:33NURSETOFull House10,000
4527/07 18:33VIGORFull House10,000
4627/07 18:33SIPAUPAUFull House1,000
4727/07 18:33MRSD75Full House5,000
4827/07 18:33RRN20Full House1,000
4927/07 18:33GINA87Full House1,000
5027/07 18:33HYNG_ROYALFull House1,000

Domino Multi Jackpot System

Ikutilah global jackpot yang tersedia di system kami, dengan system jackpot terbaru dan pertama di indonesia, anda dapat membeli jackpot dengan harga 100 rupiah saja dan menangkan hadiahnya hingga puluhan juta rupiah.

Jackpot bukanlah suatu keharusan untuk dibeli, namun kami memberikan suatu fitur tambahan untuk member tercinta dari www.mejavip.net.

Terdapat tiga pilihan harga jackpot yang bisa anda beli yaitu :100,500 dan 1000 rupiah.

Hadiah dari Multi jackpot system www.mejavip.net

  1. Murni Kecil x 50 harga jackpot yang anda beli.
      (contoh:anda membeli 1000 maka:1000 X 50 = 50.000)
  2. Murni Besar x 50 harga jackpot yang anda beli
      (contoh:anda membeli 1000 maka:1000 X 50 = 50.000)
  3. BALAK x 100 harga jackpot yang anda beli
      (contoh:anda membeli 1000 maka:1000 X 100 = 100.000)
  4. ENAM DEWA x 6666 harga jackpot yang anda beli
      (contoh:anda membeli 1000 maka:1000 X 6666 = 6.666.000)

Demikian adalah penjelasan dari Multi Jackpot www.mejavip.net terima kasih dan selamat bermain salam hoki dari kami

Domino Jackpot Winner

TOP ENAM DEWA
No.TanggalNamaPriceWin
127/07 14:39WI0P6PC3NGmurni enam3,333,000
227/07 04:21IDHYA98murni enam666,600
327/07 02:55ANGGA424murni enam6,666,000
427/07 01:55IMELDA727murni enam6,666,000
526/07 23:27LUNCURmurni enam666,600
TOP BALAK
No.TanggalNamaPriceWin
127/07 18:32ROHYANIbalak10,000
227/07 18:32JONNYHANbalak50,000
327/07 18:25DONTUS88balak100,000
427/07 18:25CHAATIIAbalak50,000
527/07 18:24SIIJAWAbalak50,000
LATEST JACKPOT
No.TanggalNamaPriceWin
127/07 18:34PR2703APCJmurni besar25,000
227/07 18:33ROBI005murni kecil25,000
327/07 18:33DAHLIA312murni besar25,000
427/07 18:33ANAKU23murni besar5,000
527/07 18:33RAFLESIA46murni kecil25,000
627/07 18:32ROHYANIbalak10,000
727/07 18:32JONNYHANbalak50,000
827/07 18:31J2SMINEmurni besar25,000
927/07 18:30CABE2233murni besar25,000
1027/07 18:28OIM999murni kecil5,000
1127/07 18:27CUAN819murni besar50,000
1227/07 18:26ALBARCA666murni kecil25,000
1327/07 18:25WDW99murni besar25,000
1427/07 18:25DONTUS88balak100,000
1527/07 18:25CHAATIIAbalak50,000
1627/07 18:24SIIJAWAbalak50,000
1727/07 18:22MTUQRLZ3P7murni kecil5,000
1827/07 18:22SUKUTOLTOLbalak100,000
1927/07 18:22SUPINAHmurni kecil50,000
2027/07 18:22DM82997murni besar25,000
2127/07 18:21ENDAH78PLGbalak100,000
2227/07 18:19CIBTERmurni besar5,000
2327/07 18:18ELBECEONEmurni kecil25,000
2427/07 18:16SUROSOBOYOmurni besar5,000
2527/07 18:14AEBBD9C3murni kecil50,000
2627/07 18:14HENDRA168murni besar25,000
2727/07 18:13ANCHA06murni besar5,000
2827/07 18:13USKENmurni kecil50,000
2927/07 18:13D765BE4Abalak10,000
3027/07 18:13AZIEZ076murni besar25,000
3127/07 18:12BARUBEBASmurni kecil50,000
3227/07 18:12MANA2murni kecil50,000
3327/07 18:11MONSTER1murni kecil50,000
3427/07 18:10GAMAWANmurni kecil5,000
3527/07 18:09MDRGEDAmurni besar50,000
3627/07 18:08AEBBD9C3murni kecil50,000
3727/07 18:08AJUM999murni kecil50,000
3827/07 18:08BRONIZ15murni kecil50,000
3927/07 18:08BUDHAY2Umurni kecil25,000
4027/07 18:07JEJEN93murni kecil50,000
4127/07 18:07DELON999murni besar5,000
4227/07 18:05FAREEL99murni kecil50,000
4327/07 18:05ALEXXBAROSmurni besar50,000
4427/07 18:02ROBI005balak50,000
4527/07 18:01ILFUmurni besar50,000
4627/07 18:00J822EGHX4Xmurni besar50,000
4727/07 17:59METHOSmurni kecil25,000
4827/07 17:58THBVP8NMVAmurni besar50,000
4927/07 17:58ENDIK86murni kecil50,000
5027/07 17:57VARIO16murni besar5,000

Ceme Multi Jackpot System

Jackpot dilihat dari gabungan kartu pemain dengan kartu bandar. Bandar harus membeli jackpot sebanyak jumlah player yang sedang duduk. Sebagai contoh bila terdapat 3 pemain duduk bermain, dan bandar memutuskan untuk membeli jackpot Rp 1.000, maka pada periode tersebut bandar akan membeli jackpot sebanyak 3xRp1.000 = Rp3.000.

Jackpot bukanlah suatu keharusan untuk dibeli, namun kami memberikan suatu fitur tambahan untuk member tercinta dari www.mejavip.net.

Terdapat tiga pilihan harga jackpot yang bisa anda beli yaitu :100,500 dan 1000 rupiah.

Hadiah dari Multi jackpot system www.mejavip.net

  1. Murni Kecil x 50 harga jackpot yang anda beli.
      (contoh:anda membeli 1000 maka:1000 X 50 = 50.000)
  2. Murni Besar x 50 harga jackpot yang anda beli
      (contoh:anda membeli 1000 maka:1000 X 50 = 50.000)
  3. BALAK x 200 harga jackpot yang anda beli
      (contoh:anda membeli 1000 maka:1000 X 200 = 200.000)
  4. ENAM DEWA x 6666 harga jackpot yang anda beli
      (contoh:anda membeli 1000 maka:1000 X 6666 = 6.666.000)

Demikian adalah penjelasan dari Multi Jackpot www.mejavip.net terima kasih dan selamat bermain salam hoki dari kami

Ceme Jackpot Winner

TOP ENAM DEWA
No.TanggalNamaPriceWin
127/07 18:21DEPEGYmurni enam6,666,000
227/07 17:33ELEHAJAmurni enam6,666,000
327/07 17:33BL7110NSmurni enam666,600
427/07 16:39LOSSERmurni enam666,600
527/07 16:28SHIFA33murni enam6,666,000
TOP BALAK
No.TanggalNamaPriceWin
127/07 18:33KOPLO24balak100,000
227/07 18:32RAMP0K99balak200,000
327/07 18:30AB4SYbalak20,000
427/07 18:29YUNITAQQbalak200,000
527/07 18:29BER217ANYbalak100,000
LATEST JACKPOT
No.TanggalNamaPriceWin
127/07 18:34CIBUNAR1murni besar25,000
227/07 18:34YAKE76murni besar5,000
327/07 18:33KOPLO24balak100,000
427/07 18:33GATWINmurni kecil25,000
527/07 18:33GATWINmurni kecil25,000
627/07 18:32BEGUNDILmurni besar5,000
727/07 18:32RAMP0K99balak200,000
827/07 18:32RAMP0K99murni kecil50,000
927/07 18:32KOPLO24murni besar25,000
1027/07 18:32AACA37CDmurni kecil50,000
1127/07 18:32HACEP99murni kecil5,000
1227/07 18:31COKER66murni besar5,000
1327/07 18:31ANZOEmurni besar50,000
1427/07 18:31RAMP0K99murni besar50,000
1527/07 18:30FERRY1212murni besar50,000
1627/07 18:30VIRUS71murni kecil50,000
1727/07 18:30DUTAWANGI1murni besar5,000
1827/07 18:30RAHIBmurni kecil25,000
1927/07 18:30AB4SYbalak20,000
2027/07 18:29IWAN42murni kecil50,000
2127/07 18:29YUNITAQQbalak200,000
2227/07 18:29BER217ANYbalak100,000
2327/07 18:29ASIAFbalak100,000
2427/07 18:28MANI577murni kecil50,000
2527/07 18:28TWINSISTERmurni kecil50,000
2627/07 18:28AJS777murni kecil25,000
2727/07 18:28MISYUU46murni besar50,000
2827/07 18:28ESHAALmurni kecil25,000
2927/07 18:28FRRSUEBbalak200,000
3027/07 18:27FRRSUEBmurni kecil50,000
3127/07 18:27KAKASHI009murni kecil50,000
3227/07 18:27PUTRI05balak100,000
3327/07 18:26ARLANG111murni kecil50,000
3427/07 18:26LARJO123murni besar50,000
3527/07 18:26FRRSUEBmurni kecil50,000
3627/07 18:25S4B1N42murni kecil50,000
3727/07 18:25TARIKKMANGbalak200,000
3827/07 18:25NAJOGImurni kecil50,000
3927/07 18:25KOPLO24balak20,000
4027/07 18:25ALISIFAmurni besar50,000
4127/07 18:24GATWINmurni kecil25,000
4227/07 18:24MARITIM123murni kecil50,000
4327/07 18:24EDYPURWImurni kecil50,000
4427/07 18:24JACKU1murni kecil5,000
4527/07 18:24BAYU032murni besar25,000
4627/07 18:23JACKU1murni kecil5,000
4727/07 18:23ALDYY89murni kecil50,000
4827/07 18:23AISUN2murni kecil50,000
4927/07 18:22ARLANG111murni kecil50,000
5027/07 18:22VESA86murni kecil5,000